<?xml version="1.0" encoding="UTF-8" standalone="no" ?>
<gpx xmlns="http://www.topografix.com/GPX/1/1" xmlns:xsi="http://www.w3.org/2001/XMLSchema-instance" xsi:schemaLocation="http://www.topografix.com/GPX/1/1 http://www.topografix.com/GPX/1/1/gpx.xsd" version="1.1" creator="VisuGPX - https://www.visugpx.com">
  <metadata>
    <name>abbaretz_5Tresors_TourArche_22km</name>
    <desc><![CDATA[gnerando idor: 7059957_7059979_7060017_9914522]]></desc>
  </metadata>
  <trk>
    <name><![CDATA[Abbaretz_5Trésors_34km-7059957]]></name>
    <extensions>
      <line xmlns="http://www.topografix.com/GPX/gpx_style/0/2">
        <color>00FF00</color>
        <width>4</width>
      </line>
    </extensions>
    <trkseg>
      <trkpt lat="47.55466" lon="-1.52524">
        <ele>62</ele>
        <time>2023-10-29T15:21:26Z</time>
      </trkpt>
      <trkpt lat="47.55458" lon="-1.5252">
        <ele>62</ele>
        <time>2023-10-29T15:21:37Z</time>
      </trkpt>
      <trkpt lat="47.55449" lon="-1.52521">
        <ele>62</ele>
        <time>2023-10-29T15:21:49Z</time>
      </trkpt>
      <trkpt lat="47.553" lon="-1.52559">
        <ele>66</ele>
        <time>2023-10-29T15:25:11Z</time>
      </trkpt>
      <trkpt lat="47.55306" lon="-1.52422">
        <ele>66</ele>
        <time>2023-10-29T15:27:15Z</time>
      </trkpt>
      <trkpt lat="47.55402" lon="-1.52411">
        <ele>63</ele>
        <time>2023-10-29T15:29:23Z</time>
      </trkpt>
      <trkpt lat="47.55725" lon="-1.52352">
        <ele>63</ele>
        <time>2023-10-29T15:36:38Z</time>
      </trkpt>
      <trkpt lat="47.55827" lon="-1.52325">
        <ele>63</ele>
        <time>2023-10-29T15:38:56Z</time>
      </trkpt>
      <trkpt lat="47.55859" lon="-1.52112">
        <ele>56</ele>
        <time>2023-10-29T15:42:12Z</time>
      </trkpt>
      <trkpt lat="47.55876" lon="-1.52034">
        <ele>54</ele>
        <time>2023-10-29T15:43:26Z</time>
      </trkpt>
      <trkpt lat="47.55899" lon="-1.51965">
        <ele>53</ele>
        <time>2023-10-29T15:44:35Z</time>
      </trkpt>
      <trkpt lat="47.55926" lon="-1.51916">
        <ele>53</ele>
        <time>2023-10-29T15:45:32Z</time>
      </trkpt>
      <trkpt lat="47.55945" lon="-1.51923">
        <ele>53</ele>
        <time>2023-10-29T15:45:58Z</time>
      </trkpt>
      <trkpt lat="47.56012" lon="-1.51918">
        <ele>52</ele>
        <time>2023-10-29T15:47:28Z</time>
      </trkpt>
      <trkpt lat="47.5604" lon="-1.5192">
        <ele>52</ele>
        <time>2023-10-29T15:48:05Z</time>
      </trkpt>
      <trkpt lat="47.56202" lon="-1.51988">
        <ele>50</ele>
        <time>2023-10-29T15:51:50Z</time>
      </trkpt>
      <trkpt lat="47.56259" lon="-1.52011">
        <ele>49</ele>
        <time>2023-10-29T15:53:09Z</time>
      </trkpt>
      <trkpt lat="47.56253" lon="-1.51964">
        <ele>49</ele>
        <time>2023-10-29T15:53:52Z</time>
      </trkpt>
      <trkpt lat="47.56252" lon="-1.51933">
        <ele>49</ele>
        <time>2023-10-29T15:54:20Z</time>
      </trkpt>
      <trkpt lat="47.56273" lon="-1.5183">
        <ele>49</ele>
        <time>2023-10-29T15:55:57Z</time>
      </trkpt>
      <trkpt lat="47.56354" lon="-1.51897">
        <ele>50</ele>
        <time>2023-10-29T15:58:01Z</time>
      </trkpt>
      <trkpt lat="47.56418" lon="-1.51983">
        <ele>48</ele>
        <time>2023-10-29T15:59:56Z</time>
      </trkpt>
      <trkpt lat="47.5644" lon="-1.52001">
        <ele>48</ele>
        <time>2023-10-29T16:00:29Z</time>
      </trkpt>
      <trkpt lat="47.56462" lon="-1.52005">
        <ele>48</ele>
        <time>2023-10-29T16:00:59Z</time>
      </trkpt>
      <trkpt lat="47.56526" lon="-1.51994">
        <ele>48</ele>
        <time>2023-10-29T16:02:25Z</time>
      </trkpt>
      <trkpt lat="47.56542" lon="-1.51999">
        <ele>47</ele>
        <time>2023-10-29T16:02:47Z</time>
      </trkpt>
      <trkpt lat="47.56581" lon="-1.51962">
        <ele>47</ele>
        <time>2023-10-29T16:03:49Z</time>
      </trkpt>
      <trkpt lat="47.56579" lon="-1.51943">
        <ele>47</ele>
        <time>2023-10-29T16:04:06Z</time>
      </trkpt>
      <trkpt lat="47.56587" lon="-1.51702">
        <ele>46</ele>
        <time>2023-10-29T16:07:43Z</time>
      </trkpt>
      <trkpt lat="47.56579" lon="-1.51419">
        <ele>46</ele>
        <time>2023-10-29T16:11:58Z</time>
      </trkpt>
      <trkpt lat="47.56581" lon="-1.51372">
        <ele>47</ele>
        <time>2023-10-29T16:12:41Z</time>
      </trkpt>
      <trkpt lat="47.56641" lon="-1.50971">
        <ele>46</ele>
        <time>2023-10-29T16:18:51Z</time>
      </trkpt>
      <trkpt lat="47.56643" lon="-1.5096">
        <ele>46</ele>
        <time>2023-10-29T16:19:01Z</time>
      </trkpt>
      <trkpt lat="47.56671" lon="-1.50972">
        <ele>45</ele>
        <time>2023-10-29T16:19:40Z</time>
      </trkpt>
      <trkpt lat="47.56696" lon="-1.50974">
        <ele>44</ele>
        <time>2023-10-29T16:20:13Z</time>
      </trkpt>
      <trkpt lat="47.56767" lon="-1.50951">
        <ele>43</ele>
        <time>2023-10-29T16:21:50Z</time>
      </trkpt>
      <trkpt lat="47.56819" lon="-1.50955">
        <ele>44</ele>
        <time>2023-10-29T16:23:00Z</time>
      </trkpt>
      <trkpt lat="47.56825" lon="-1.50952">
        <ele>44</ele>
        <time>2023-10-29T16:23:08Z</time>
      </trkpt>
      <trkpt lat="47.56828" lon="-1.50935">
        <ele>43</ele>
        <time>2023-10-29T16:23:24Z</time>
      </trkpt>
      <trkpt lat="47.56831" lon="-1.50761">
        <ele>40</ele>
        <time>2023-10-29T16:26:01Z</time>
      </trkpt>
      <trkpt lat="47.56837" lon="-1.5075">
        <ele>40</ele>
        <time>2023-10-29T16:26:13Z</time>
      </trkpt>
      <trkpt lat="47.57186" lon="-1.50709">
        <ele>37</ele>
        <time>2023-10-29T16:34:00Z</time>
      </trkpt>
      <trkpt lat="47.57203" lon="-1.50701">
        <ele>37</ele>
        <time>2023-10-29T16:34:24Z</time>
      </trkpt>
      <trkpt lat="47.57195" lon="-1.50691">
        <ele>37</ele>
        <time>2023-10-29T16:34:38Z</time>
      </trkpt>
      <trkpt lat="47.57191" lon="-1.50679">
        <ele>37</ele>
        <time>2023-10-29T16:34:50Z</time>
      </trkpt>
      <trkpt lat="47.57182" lon="-1.50482">
        <ele>36</ele>
        <time>2023-10-29T16:37:48Z</time>
      </trkpt>
      <trkpt lat="47.5717" lon="-1.50446">
        <ele>37</ele>
        <time>2023-10-29T16:38:24Z</time>
      </trkpt>
      <trkpt lat="47.57102" lon="-1.50285">
        <ele>37</ele>
        <time>2023-10-29T16:41:15Z</time>
      </trkpt>
      <trkpt lat="47.57036" lon="-1.50074">
        <ele>37</ele>
        <time>2023-10-29T16:44:45Z</time>
      </trkpt>
      <trkpt lat="47.57026" lon="-1.49931">
        <ele>39</ele>
        <time>2023-10-29T16:46:54Z</time>
      </trkpt>
      <trkpt lat="47.57027" lon="-1.49891">
        <ele>39</ele>
        <time>2023-10-29T16:47:30Z</time>
      </trkpt>
      <trkpt lat="47.5703" lon="-1.4985">
        <ele>39</ele>
        <time>2023-10-29T16:48:07Z</time>
      </trkpt>
      <trkpt lat="47.57025" lon="-1.49799">
        <ele>39</ele>
        <time>2023-10-29T16:48:54Z</time>
      </trkpt>
      <trkpt lat="47.57018" lon="-1.49751">
        <ele>39</ele>
        <time>2023-10-29T16:49:38Z</time>
      </trkpt>
      <trkpt lat="47.5701" lon="-1.49719">
        <ele>39</ele>
        <time>2023-10-29T16:50:09Z</time>
      </trkpt>
      <trkpt lat="47.57008" lon="-1.49708">
        <ele>39</ele>
        <time>2023-10-29T16:50:19Z</time>
      </trkpt>
      <trkpt lat="47.57011" lon="-1.49651">
        <ele>39</ele>
        <time>2023-10-29T16:51:10Z</time>
      </trkpt>
      <trkpt lat="47.57009" lon="-1.49607">
        <ele>39</ele>
        <time>2023-10-29T16:51:50Z</time>
      </trkpt>
      <trkpt lat="47.57001" lon="-1.49602">
        <ele>39</ele>
        <time>2023-10-29T16:52:02Z</time>
      </trkpt>
      <trkpt lat="47.56986" lon="-1.49578">
        <ele>39</ele>
        <time>2023-10-29T16:52:31Z</time>
      </trkpt>
      <trkpt lat="47.56894" lon="-1.49492">
        <ele>39</ele>
        <time>2023-10-29T16:54:56Z</time>
      </trkpt>
      <trkpt lat="47.56786" lon="-1.49462">
        <ele>39</ele>
        <time>2023-10-29T16:57:23Z</time>
      </trkpt>
      <trkpt lat="47.56812" lon="-1.49166">
        <ele>36</ele>
        <time>2023-10-29T17:01:52Z</time>
      </trkpt>
      <trkpt lat="47.57095" lon="-1.49168">
        <ele>38</ele>
        <time>2023-10-29T17:08:09Z</time>
      </trkpt>
      <trkpt lat="47.57201" lon="-1.49161">
        <ele>35</ele>
        <time>2023-10-29T17:10:31Z</time>
      </trkpt>
      <trkpt lat="47.57241" lon="-1.49152">
        <ele>36</ele>
        <time>2023-10-29T17:11:25Z</time>
      </trkpt>
      <trkpt lat="47.57337" lon="-1.49092">
        <ele>40</ele>
        <time>2023-10-29T17:13:44Z</time>
      </trkpt>
      <trkpt lat="47.57343" lon="-1.4908">
        <ele>40</ele>
        <time>2023-10-29T17:13:57Z</time>
      </trkpt>
      <trkpt lat="47.57346" lon="-1.49061">
        <ele>41</ele>
        <time>2023-10-29T17:14:15Z</time>
      </trkpt>
      <trkpt lat="47.57327" lon="-1.48965">
        <ele>44</ele>
        <time>2023-10-29T17:15:45Z</time>
      </trkpt>
      <trkpt lat="47.57327" lon="-1.48922">
        <ele>48</ele>
        <time>2023-10-29T17:16:24Z</time>
      </trkpt>
      <trkpt lat="47.57378" lon="-1.487">
        <ele>55</ele>
        <time>2023-10-29T17:19:55Z</time>
      </trkpt>
      <trkpt lat="47.57389" lon="-1.48666">
        <ele>55</ele>
        <time>2023-10-29T17:20:29Z</time>
      </trkpt>
      <trkpt lat="47.57402" lon="-1.48649">
        <ele>55</ele>
        <time>2023-10-29T17:20:52Z</time>
      </trkpt>
      <trkpt lat="47.57507" lon="-1.48616">
        <ele>58</ele>
        <time>2023-10-29T17:23:15Z</time>
      </trkpt>
      <trkpt lat="47.57518" lon="-1.4861">
        <ele>58</ele>
        <time>2023-10-29T17:23:31Z</time>
      </trkpt>
      <trkpt lat="47.57526" lon="-1.486">
        <ele>58</ele>
        <time>2023-10-29T17:23:45Z</time>
      </trkpt>
      <trkpt lat="47.57531" lon="-1.48573">
        <ele>59</ele>
        <time>2023-10-29T17:24:10Z</time>
      </trkpt>
      <trkpt lat="47.57528" lon="-1.48474">
        <ele>60</ele>
        <time>2023-10-29T17:25:39Z</time>
      </trkpt>
      <trkpt lat="47.57532" lon="-1.48418">
        <ele>61</ele>
        <time>2023-10-29T17:26:30Z</time>
      </trkpt>
      <trkpt lat="47.57569" lon="-1.48271">
        <ele>63</ele>
        <time>2023-10-29T17:28:51Z</time>
      </trkpt>
      <trkpt lat="47.5758" lon="-1.48252">
        <ele>63</ele>
        <time>2023-10-29T17:29:14Z</time>
      </trkpt>
      <trkpt lat="47.57574" lon="-1.48222">
        <ele>63</ele>
        <time>2023-10-29T17:29:42Z</time>
      </trkpt>
      <trkpt lat="47.57572" lon="-1.48181">
        <ele>64</ele>
        <time>2023-10-29T17:30:19Z</time>
      </trkpt>
      <trkpt lat="47.57573" lon="-1.48081">
        <ele>66</ele>
        <time>2023-10-29T17:31:49Z</time>
      </trkpt>
      <trkpt lat="47.57577" lon="-1.48026">
        <ele>67</ele>
        <time>2023-10-29T17:32:39Z</time>
      </trkpt>
      <trkpt lat="47.5759" lon="-1.47969">
        <ele>66</ele>
        <time>2023-10-29T17:33:33Z</time>
      </trkpt>
      <trkpt lat="47.57607" lon="-1.47897">
        <ele>64</ele>
        <time>2023-10-29T17:34:41Z</time>
      </trkpt>
      <trkpt lat="47.57628" lon="-1.47821">
        <ele>64</ele>
        <time>2023-10-29T17:35:55Z</time>
      </trkpt>
      <trkpt lat="47.57657" lon="-1.47686">
        <ele>65</ele>
        <time>2023-10-29T17:38:03Z</time>
      </trkpt>
      <trkpt lat="47.57653" lon="-1.47632">
        <ele>66</ele>
        <time>2023-10-29T17:38:52Z</time>
      </trkpt>
      <trkpt lat="47.57636" lon="-1.47522">
        <ele>69</ele>
        <time>2023-10-29T17:40:33Z</time>
      </trkpt>
      <trkpt lat="47.5763" lon="-1.47412">
        <ele>67</ele>
        <time>2023-10-29T17:42:13Z</time>
      </trkpt>
      <trkpt lat="47.57634" lon="-1.47358">
        <ele>66</ele>
        <time>2023-10-29T17:43:02Z</time>
      </trkpt>
      <trkpt lat="47.57647" lon="-1.47263">
        <ele>65</ele>
        <time>2023-10-29T17:44:29Z</time>
      </trkpt>
      <trkpt lat="47.57648" lon="-1.47161">
        <ele>67</ele>
        <time>2023-10-29T17:46:01Z</time>
      </trkpt>
      <trkpt lat="47.57638" lon="-1.46999">
        <ele>66</ele>
        <time>2023-10-29T17:48:27Z</time>
      </trkpt>
      <trkpt lat="47.57676" lon="-1.46829">
        <ele>68</ele>
        <time>2023-10-29T17:51:08Z</time>
      </trkpt>
      <trkpt lat="47.57673" lon="-1.46826">
        <ele>68</ele>
        <time>2023-10-29T17:51:13Z</time>
      </trkpt>
      <trkpt lat="47.57729" lon="-1.46597">
        <ele>65</ele>
        <time>2023-10-29T17:54:53Z</time>
      </trkpt>
      <trkpt lat="47.57742" lon="-1.46522">
        <ele>67</ele>
        <time>2023-10-29T17:56:02Z</time>
      </trkpt>
      <trkpt lat="47.57781" lon="-1.46401">
        <ele>67</ele>
        <time>2023-10-29T17:58:03Z</time>
      </trkpt>
      <trkpt lat="47.57798" lon="-1.4636">
        <ele>68</ele>
        <time>2023-10-29T17:58:46Z</time>
      </trkpt>
      <trkpt lat="47.57844" lon="-1.4627">
        <ele>70</ele>
        <time>2023-10-29T18:00:28Z</time>
      </trkpt>
      <trkpt lat="47.57707" lon="-1.46163">
        <ele>62</ele>
        <time>2023-10-29T18:03:55Z</time>
      </trkpt>
      <trkpt lat="47.57678" lon="-1.46161">
        <ele>60</ele>
        <time>2023-10-29T18:04:33Z</time>
      </trkpt>
      <trkpt lat="47.57626" lon="-1.46138">
        <ele>56</ele>
        <time>2023-10-29T18:05:46Z</time>
      </trkpt>
      <trkpt lat="47.57519" lon="-1.46073">
        <ele>50</ele>
        <time>2023-10-29T18:08:20Z</time>
      </trkpt>
      <trkpt lat="47.57464" lon="-1.46159">
        <ele>50</ele>
        <time>2023-10-29T18:10:07Z</time>
      </trkpt>
      <trkpt lat="47.57437" lon="-1.46201">
        <ele>49</ele>
        <time>2023-10-29T18:10:59Z</time>
      </trkpt>
      <trkpt lat="47.57399" lon="-1.46258">
        <ele>47</ele>
        <time>2023-10-29T18:12:11Z</time>
      </trkpt>
      <trkpt lat="47.57437" lon="-1.46201">
        <ele>49</ele>
        <time>2023-10-29T18:13:23Z</time>
      </trkpt>
      <trkpt lat="47.57464" lon="-1.46159">
        <ele>50</ele>
        <time>2023-10-29T18:14:16Z</time>
      </trkpt>
      <trkpt lat="47.57519" lon="-1.46073">
        <ele>50</ele>
        <time>2023-10-29T18:16:02Z</time>
      </trkpt>
      <trkpt lat="47.57626" lon="-1.46138">
        <ele>56</ele>
        <time>2023-10-29T18:18:36Z</time>
      </trkpt>
      <trkpt lat="47.57678" lon="-1.46161">
        <ele>60</ele>
        <time>2023-10-29T18:19:49Z</time>
      </trkpt>
      <trkpt lat="47.57707" lon="-1.46163">
        <ele>62</ele>
        <time>2023-10-29T18:20:28Z</time>
      </trkpt>
      <trkpt lat="47.57844" lon="-1.4627">
        <ele>70</ele>
        <time>2023-10-29T18:23:54Z</time>
      </trkpt>
      <trkpt lat="47.57798" lon="-1.4636">
        <ele>68</ele>
        <time>2023-10-29T18:25:36Z</time>
      </trkpt>
      <trkpt lat="47.57781" lon="-1.46401">
        <ele>67</ele>
        <time>2023-10-29T18:26:19Z</time>
      </trkpt>
      <trkpt lat="47.57742" lon="-1.46522">
        <ele>67</ele>
        <time>2023-10-29T18:28:20Z</time>
      </trkpt>
      <trkpt lat="47.57729" lon="-1.46597">
        <ele>65</ele>
        <time>2023-10-29T18:29:30Z</time>
      </trkpt>
      <trkpt lat="47.57673" lon="-1.46826">
        <ele>68</ele>
        <time>2023-10-29T18:33:09Z</time>
      </trkpt>
      <trkpt lat="47.57676" lon="-1.46829">
        <ele>68</ele>
        <time>2023-10-29T18:33:14Z</time>
      </trkpt>
      <trkpt lat="47.57638" lon="-1.46999">
        <ele>66</ele>
        <time>2023-10-29T18:35:55Z</time>
      </trkpt>
      <trkpt lat="47.57648" lon="-1.47161">
        <ele>67</ele>
        <time>2023-10-29T18:38:21Z</time>
      </trkpt>
      <trkpt lat="47.57647" lon="-1.47263">
        <ele>65</ele>
        <time>2023-10-29T18:39:53Z</time>
      </trkpt>
      <trkpt lat="47.57634" lon="-1.47358">
        <ele>66</ele>
        <time>2023-10-29T18:41:21Z</time>
      </trkpt>
      <trkpt lat="47.5763" lon="-1.47412">
        <ele>67</ele>
        <time>2023-10-29T18:42:09Z</time>
      </trkpt>
      <trkpt lat="47.57636" lon="-1.47522">
        <ele>69</ele>
        <time>2023-10-29T18:43:49Z</time>
      </trkpt>
      <trkpt lat="47.57653" lon="-1.47632">
        <ele>66</ele>
        <time>2023-10-29T18:45:30Z</time>
      </trkpt>
      <trkpt lat="47.57657" lon="-1.47686">
        <ele>65</ele>
        <time>2023-10-29T18:46:19Z</time>
      </trkpt>
      <trkpt lat="47.57628" lon="-1.47821">
        <ele>64</ele>
        <time>2023-10-29T18:48:27Z</time>
      </trkpt>
      <trkpt lat="47.57607" lon="-1.47897">
        <ele>64</ele>
        <time>2023-10-29T18:49:41Z</time>
      </trkpt>
      <trkpt lat="47.5759" lon="-1.47969">
        <ele>66</ele>
        <time>2023-10-29T18:50:49Z</time>
      </trkpt>
      <trkpt lat="47.57183" lon="-1.4786">
        <ele>46</ele>
        <time>2023-10-29T19:00:01Z</time>
      </trkpt>
      <trkpt lat="47.56955" lon="-1.47793">
        <ele>41</ele>
        <time>2023-10-29T19:05:12Z</time>
      </trkpt>
      <trkpt lat="47.56818" lon="-1.47756">
        <ele>39</ele>
        <time>2023-10-29T19:08:17Z</time>
      </trkpt>
      <trkpt lat="47.55813" lon="-1.46985">
        <ele>69</ele>
        <time>2023-10-29T19:33:28Z</time>
      </trkpt>
      <trkpt lat="47.55817" lon="-1.46983">
        <ele>68</ele>
        <time>2023-10-29T19:33:33Z</time>
      </trkpt>
      <trkpt lat="47.55794" lon="-1.46963">
        <ele>71</ele>
        <time>2023-10-29T19:34:09Z</time>
      </trkpt>
      <trkpt lat="47.55749" lon="-1.4694">
        <ele>73</ele>
        <time>2023-10-29T19:35:12Z</time>
      </trkpt>
      <trkpt lat="47.5569" lon="-1.46936">
        <ele>76</ele>
        <time>2023-10-29T19:36:31Z</time>
      </trkpt>
      <trkpt lat="47.55637" lon="-1.46971">
        <ele>79</ele>
        <time>2023-10-29T19:37:49Z</time>
      </trkpt>
      <trkpt lat="47.55579" lon="-1.47029">
        <ele>82</ele>
        <time>2023-10-29T19:39:22Z</time>
      </trkpt>
      <trkpt lat="47.5554" lon="-1.47064">
        <ele>80</ele>
        <time>2023-10-29T19:40:23Z</time>
      </trkpt>
      <trkpt lat="47.55548" lon="-1.47408">
        <ele>82</ele>
        <time>2023-10-29T19:45:33Z</time>
      </trkpt>
      <trkpt lat="47.55522" lon="-1.47411">
        <ele>80</ele>
        <time>2023-10-29T19:46:08Z</time>
      </trkpt>
      <trkpt lat="47.55548" lon="-1.47408">
        <ele>82</ele>
        <time>2023-10-29T19:46:42Z</time>
      </trkpt>
      <trkpt lat="47.5554" lon="-1.47064">
        <ele>80</ele>
        <time>2023-10-29T19:51:52Z</time>
      </trkpt>
      <trkpt lat="47.55579" lon="-1.47029">
        <ele>82</ele>
        <time>2023-10-29T19:52:53Z</time>
      </trkpt>
      <trkpt lat="47.55637" lon="-1.46971">
        <ele>79</ele>
        <time>2023-10-29T19:54:27Z</time>
      </trkpt>
      <trkpt lat="47.5569" lon="-1.46936">
        <ele>76</ele>
        <time>2023-10-29T19:55:44Z</time>
      </trkpt>
      <trkpt lat="47.55749" lon="-1.4694">
        <ele>73</ele>
        <time>2023-10-29T19:57:03Z</time>
      </trkpt>
      <trkpt lat="47.55794" lon="-1.46963">
        <ele>71</ele>
        <time>2023-10-29T19:58:06Z</time>
      </trkpt>
      <trkpt lat="47.55817" lon="-1.46983">
        <ele>68</ele>
        <time>2023-10-29T19:58:42Z</time>
      </trkpt>
      <trkpt lat="47.55834" lon="-1.46977">
        <ele>68</ele>
        <time>2023-10-29T19:59:05Z</time>
      </trkpt>
      <trkpt lat="47.55863" lon="-1.46959">
        <ele>66</ele>
        <time>2023-10-29T19:59:47Z</time>
      </trkpt>
      <trkpt lat="47.56061" lon="-1.46795">
        <ele>61</ele>
        <time>2023-10-29T20:04:50Z</time>
      </trkpt>
      <trkpt lat="47.56218" lon="-1.46703">
        <ele>55</ele>
        <time>2023-10-29T20:08:35Z</time>
      </trkpt>
      <trkpt lat="47.56258" lon="-1.46665">
        <ele>53</ele>
        <time>2023-10-29T20:09:39Z</time>
      </trkpt>
      <trkpt lat="47.564" lon="-1.46507">
        <ele>50</ele>
        <time>2023-10-29T20:13:36Z</time>
      </trkpt>
      <trkpt lat="47.5642" lon="-1.46475">
        <ele>51</ele>
        <time>2023-10-29T20:14:15Z</time>
      </trkpt>
      <trkpt lat="47.56426" lon="-1.46459">
        <ele>51</ele>
        <time>2023-10-29T20:14:31Z</time>
      </trkpt>
      <trkpt lat="47.56439" lon="-1.46163">
        <ele>61</ele>
        <time>2023-10-29T20:18:58Z</time>
      </trkpt>
      <trkpt lat="47.56431" lon="-1.45863">
        <ele>61</ele>
        <time>2023-10-29T20:23:29Z</time>
      </trkpt>
      <trkpt lat="47.56475" lon="-1.45426">
        <ele>59</ele>
        <time>2023-10-29T20:30:07Z</time>
      </trkpt>
      <trkpt lat="47.56546" lon="-1.45112">
        <ele>57</ele>
        <time>2023-10-29T20:35:05Z</time>
      </trkpt>
      <trkpt lat="47.5657" lon="-1.45041">
        <ele>59</ele>
        <time>2023-10-29T20:36:16Z</time>
      </trkpt>
      <trkpt lat="47.56577" lon="-1.44882">
        <ele>62</ele>
        <time>2023-10-29T20:38:40Z</time>
      </trkpt>
      <trkpt lat="47.56596" lon="-1.4471">
        <ele>62</ele>
        <time>2023-10-29T20:41:17Z</time>
      </trkpt>
      <trkpt lat="47.5664" lon="-1.44385">
        <ele>56</ele>
        <time>2023-10-29T20:46:15Z</time>
      </trkpt>
      <trkpt lat="47.56531" lon="-1.44333">
        <ele>64</ele>
        <time>2023-10-29T20:48:48Z</time>
      </trkpt>
      <trkpt lat="47.56532" lon="-1.44304">
        <ele>64</ele>
        <time>2023-10-29T20:49:14Z</time>
      </trkpt>
      <trkpt lat="47.565" lon="-1.44256">
        <ele>69</ele>
        <time>2023-10-29T20:50:15Z</time>
      </trkpt>
      <trkpt lat="47.5649" lon="-1.44249">
        <ele>69</ele>
        <time>2023-10-29T20:50:30Z</time>
      </trkpt>
      <trkpt lat="47.56315" lon="-1.44186">
        <ele>79</ele>
        <time>2023-10-29T20:54:30Z</time>
      </trkpt>
      <trkpt lat="47.56168" lon="-1.4414">
        <ele>84</ele>
        <time>2023-10-29T20:57:50Z</time>
      </trkpt>
      <trkpt lat="47.56182" lon="-1.44046">
        <ele>84</ele>
        <time>2023-10-29T20:59:17Z</time>
      </trkpt>
      <trkpt lat="47.56185" lon="-1.43949">
        <ele>82</ele>
        <time>2023-10-29T21:00:45Z</time>
      </trkpt>
      <trkpt lat="47.56058" lon="-1.43926">
        <ele>78</ele>
        <time>2023-10-29T21:03:35Z</time>
      </trkpt>
      <trkpt lat="47.56054" lon="-1.43995">
        <ele>79</ele>
        <time>2023-10-29T21:04:38Z</time>
      </trkpt>
      <trkpt lat="47.55802" lon="-1.43986">
        <ele>63</ele>
        <time>2023-10-29T21:10:14Z</time>
      </trkpt>
      <trkpt lat="47.55753" lon="-1.44009">
        <ele>60</ele>
        <time>2023-10-29T21:11:23Z</time>
      </trkpt>
      <trkpt lat="47.5567" lon="-1.44045">
        <ele>56</ele>
        <time>2023-10-29T21:13:18Z</time>
      </trkpt>
      <trkpt lat="47.55645" lon="-1.44051">
        <ele>55</ele>
        <time>2023-10-29T21:13:52Z</time>
      </trkpt>
      <trkpt lat="47.55608" lon="-1.44051">
        <ele>54</ele>
        <time>2023-10-29T21:14:41Z</time>
      </trkpt>
      <trkpt lat="47.55586" lon="-1.44041">
        <ele>53</ele>
        <time>2023-10-29T21:15:12Z</time>
      </trkpt>
      <trkpt lat="47.55533" lon="-1.4398">
        <ele>52</ele>
        <time>2023-10-29T21:16:42Z</time>
      </trkpt>
      <trkpt lat="47.55441" lon="-1.4393">
        <ele>51</ele>
        <time>2023-10-29T21:18:52Z</time>
      </trkpt>
      <trkpt lat="47.5538" lon="-1.43789">
        <ele>49</ele>
        <time>2023-10-29T21:21:23Z</time>
      </trkpt>
      <trkpt lat="47.55364" lon="-1.43766">
        <ele>49</ele>
        <time>2023-10-29T21:21:53Z</time>
      </trkpt>
      <trkpt lat="47.55351" lon="-1.43757">
        <ele>49</ele>
        <time>2023-10-29T21:22:12Z</time>
      </trkpt>
      <trkpt lat="47.55331" lon="-1.43756">
        <ele>48</ele>
        <time>2023-10-29T21:22:39Z</time>
      </trkpt>
      <trkpt lat="47.55267" lon="-1.43776">
        <ele>45</ele>
        <time>2023-10-29T21:24:06Z</time>
      </trkpt>
      <trkpt lat="47.55157" lon="-1.43851">
        <ele>45</ele>
        <time>2023-10-29T21:26:48Z</time>
      </trkpt>
      <trkpt lat="47.55113" lon="-1.43894">
        <ele>45</ele>
        <time>2023-10-29T21:27:58Z</time>
      </trkpt>
      <trkpt lat="47.55102" lon="-1.43922">
        <ele>45</ele>
        <time>2023-10-29T21:28:27Z</time>
      </trkpt>
      <trkpt lat="47.55" lon="-1.4428">
        <ele>47</ele>
        <time>2023-10-29T21:34:17Z</time>
      </trkpt>
      <trkpt lat="47.54926" lon="-1.44503">
        <ele>52</ele>
        <time>2023-10-29T21:38:01Z</time>
      </trkpt>
      <trkpt lat="47.54924" lon="-1.44512">
        <ele>52</ele>
        <time>2023-10-29T21:38:09Z</time>
      </trkpt>
      <trkpt lat="47.54819" lon="-1.44477">
        <ele>48</ele>
        <time>2023-10-29T21:40:33Z</time>
      </trkpt>
      <trkpt lat="47.54684" lon="-1.4441">
        <ele>44</ele>
        <time>2023-10-29T21:43:43Z</time>
      </trkpt>
      <trkpt lat="47.54604" lon="-1.4439">
        <ele>43</ele>
        <time>2023-10-29T21:45:31Z</time>
      </trkpt>
      <trkpt lat="47.54602" lon="-1.44396">
        <ele>43</ele>
        <time>2023-10-29T21:45:37Z</time>
      </trkpt>
      <trkpt lat="47.54299" lon="-1.44193">
        <ele>42</ele>
        <time>2023-10-29T21:53:01Z</time>
      </trkpt>
      <trkpt lat="47.54205" lon="-1.44118">
        <ele>41</ele>
        <time>2023-10-29T21:55:24Z</time>
      </trkpt>
      <trkpt lat="47.53988" lon="-1.43962">
        <ele>40</ele>
        <time>2023-10-29T22:00:46Z</time>
      </trkpt>
      <trkpt lat="47.5397" lon="-1.43945">
        <ele>42</ele>
        <time>2023-10-29T22:01:14Z</time>
      </trkpt>
      <trkpt lat="47.53971" lon="-1.43959">
        <ele>42</ele>
        <time>2023-10-29T22:01:27Z</time>
      </trkpt>
      <trkpt lat="47.53989" lon="-1.44">
        <ele>41</ele>
        <time>2023-10-29T22:02:11Z</time>
      </trkpt>
      <trkpt lat="47.53999" lon="-1.44036">
        <ele>41</ele>
        <time>2023-10-29T22:02:46Z</time>
      </trkpt>
      <trkpt lat="47.54012" lon="-1.44106">
        <ele>42</ele>
        <time>2023-10-29T22:03:51Z</time>
      </trkpt>
      <trkpt lat="47.54026" lon="-1.44203">
        <ele>43</ele>
        <time>2023-10-29T22:05:21Z</time>
      </trkpt>
      <trkpt lat="47.54035" lon="-1.44301">
        <ele>44</ele>
        <time>2023-10-29T22:06:50Z</time>
      </trkpt>
      <trkpt lat="47.54058" lon="-1.44454">
        <ele>45</ele>
        <time>2023-10-29T22:09:11Z</time>
      </trkpt>
      <trkpt lat="47.54061" lon="-1.44486">
        <ele>46</ele>
        <time>2023-10-29T22:09:40Z</time>
      </trkpt>
      <trkpt lat="47.54057" lon="-1.44515">
        <ele>47</ele>
        <time>2023-10-29T22:10:07Z</time>
      </trkpt>
      <trkpt lat="47.54027" lon="-1.44628">
        <ele>49</ele>
        <time>2023-10-29T22:11:56Z</time>
      </trkpt>
      <trkpt lat="47.54024" lon="-1.44657">
        <ele>48</ele>
        <time>2023-10-29T22:12:22Z</time>
      </trkpt>
      <trkpt lat="47.54026" lon="-1.44721">
        <ele>49</ele>
        <time>2023-10-29T22:13:20Z</time>
      </trkpt>
      <trkpt lat="47.54054" lon="-1.44836">
        <ele>50</ele>
        <time>2023-10-29T22:15:10Z</time>
      </trkpt>
      <trkpt lat="47.54058" lon="-1.44877">
        <ele>50</ele>
        <time>2023-10-29T22:15:48Z</time>
      </trkpt>
      <trkpt lat="47.54025" lon="-1.44974">
        <ele>51</ele>
        <time>2023-10-29T22:17:25Z</time>
      </trkpt>
      <trkpt lat="47.53964" lon="-1.4517">
        <ele>47</ele>
        <time>2023-10-29T22:20:40Z</time>
      </trkpt>
      <trkpt lat="47.53971" lon="-1.45175">
        <ele>47</ele>
        <time>2023-10-29T22:20:50Z</time>
      </trkpt>
      <trkpt lat="47.53952" lon="-1.45221">
        <ele>47</ele>
        <time>2023-10-29T22:21:39Z</time>
      </trkpt>
      <trkpt lat="47.53941" lon="-1.45238">
        <ele>47</ele>
        <time>2023-10-29T22:22:00Z</time>
      </trkpt>
      <trkpt lat="47.53921" lon="-1.45261">
        <ele>46</ele>
        <time>2023-10-29T22:22:34Z</time>
      </trkpt>
      <trkpt lat="47.53865" lon="-1.45317">
        <ele>45</ele>
        <time>2023-10-29T22:24:04Z</time>
      </trkpt>
      <trkpt lat="47.53786" lon="-1.4537">
        <ele>45</ele>
        <time>2023-10-29T22:26:00Z</time>
      </trkpt>
      <trkpt lat="47.53636" lon="-1.45455">
        <ele>42</ele>
        <time>2023-10-29T22:29:34Z</time>
      </trkpt>
      <trkpt lat="47.53568" lon="-1.45505">
        <ele>40</ele>
        <time>2023-10-29T22:31:15Z</time>
      </trkpt>
      <trkpt lat="47.53543" lon="-1.45537">
        <ele>41</ele>
        <time>2023-10-29T22:31:59Z</time>
      </trkpt>
      <trkpt lat="47.53485" lon="-1.4559">
        <ele>43</ele>
        <time>2023-10-29T22:33:30Z</time>
      </trkpt>
      <trkpt lat="47.53364" lon="-1.45713">
        <ele>46</ele>
        <time>2023-10-29T22:36:46Z</time>
      </trkpt>
      <trkpt lat="47.53259" lon="-1.45886">
        <ele>44</ele>
        <time>2023-10-29T22:40:16Z</time>
      </trkpt>
      <trkpt lat="47.53335" lon="-1.45938">
        <ele>49</ele>
        <time>2023-10-29T22:42:08Z</time>
      </trkpt>
      <trkpt lat="47.53387" lon="-1.4597">
        <ele>52</ele>
        <time>2023-10-29T22:43:23Z</time>
      </trkpt>
      <trkpt lat="47.53425" lon="-1.46013">
        <ele>54</ele>
        <time>2023-10-29T22:44:27Z</time>
      </trkpt>
      <trkpt lat="47.53447" lon="-1.46047">
        <ele>56</ele>
        <time>2023-10-29T22:45:09Z</time>
      </trkpt>
      <trkpt lat="47.53487" lon="-1.46149">
        <ele>57</ele>
        <time>2023-10-29T22:46:55Z</time>
      </trkpt>
      <trkpt lat="47.53501" lon="-1.46175">
        <ele>57</ele>
        <time>2023-10-29T22:47:25Z</time>
      </trkpt>
      <trkpt lat="47.53575" lon="-1.46244">
        <ele>57</ele>
        <time>2023-10-29T22:49:22Z</time>
      </trkpt>
      <trkpt lat="47.53615" lon="-1.46269">
        <ele>56</ele>
        <time>2023-10-29T22:50:20Z</time>
      </trkpt>
      <trkpt lat="47.53651" lon="-1.46318">
        <ele>56</ele>
        <time>2023-10-29T22:51:25Z</time>
      </trkpt>
      <trkpt lat="47.53656" lon="-1.46312">
        <ele>56</ele>
        <time>2023-10-29T22:51:34Z</time>
      </trkpt>
      <trkpt lat="47.53723" lon="-1.46392">
        <ele>54</ele>
        <time>2023-10-29T22:53:29Z</time>
      </trkpt>
      <trkpt lat="47.53794" lon="-1.46437">
        <ele>52</ele>
        <time>2023-10-29T22:55:12Z</time>
      </trkpt>
      <trkpt lat="47.5393" lon="-1.46477">
        <ele>50</ele>
        <time>2023-10-29T22:58:17Z</time>
      </trkpt>
      <trkpt lat="47.54096" lon="-1.46482">
        <ele>52</ele>
        <time>2023-10-29T23:01:58Z</time>
      </trkpt>
      <trkpt lat="47.54053" lon="-1.47088">
        <ele>48</ele>
        <time>2023-10-29T23:11:07Z</time>
      </trkpt>
      <trkpt lat="47.54033" lon="-1.47331">
        <ele>51</ele>
        <time>2023-10-29T23:14:48Z</time>
      </trkpt>
      <trkpt lat="47.54023" lon="-1.4742">
        <ele>51</ele>
        <time>2023-10-29T23:16:09Z</time>
      </trkpt>
      <trkpt lat="47.54039" lon="-1.47563">
        <ele>52</ele>
        <time>2023-10-29T23:18:19Z</time>
      </trkpt>
      <trkpt lat="47.54042" lon="-1.47628">
        <ele>53</ele>
        <time>2023-10-29T23:19:18Z</time>
      </trkpt>
      <trkpt lat="47.54039" lon="-1.47767">
        <ele>54</ele>
        <time>2023-10-29T23:21:23Z</time>
      </trkpt>
      <trkpt lat="47.54029" lon="-1.47925">
        <ele>55</ele>
        <time>2023-10-29T23:23:46Z</time>
      </trkpt>
      <trkpt lat="47.54011" lon="-1.48133">
        <ele>56</ele>
        <time>2023-10-29T23:26:55Z</time>
      </trkpt>
      <trkpt lat="47.5399" lon="-1.48298">
        <ele>55</ele>
        <time>2023-10-29T23:29:27Z</time>
      </trkpt>
      <trkpt lat="47.53981" lon="-1.48333">
        <ele>55</ele>
        <time>2023-10-29T23:30:00Z</time>
      </trkpt>
      <trkpt lat="47.53981" lon="-1.48357">
        <ele>54</ele>
        <time>2023-10-29T23:30:22Z</time>
      </trkpt>
      <trkpt lat="47.53983" lon="-1.48364">
        <ele>54</ele>
        <time>2023-10-29T23:30:29Z</time>
      </trkpt>
      <trkpt lat="47.54515" lon="-1.48842">
        <ele>58</ele>
        <time>2023-10-29T23:44:19Z</time>
      </trkpt>
      <trkpt lat="47.54673" lon="-1.48881">
        <ele>58</ele>
        <time>2023-10-29T23:47:53Z</time>
      </trkpt>
      <trkpt lat="47.54692" lon="-1.48889">
        <ele>58</ele>
        <time>2023-10-29T23:48:19Z</time>
      </trkpt>
      <trkpt lat="47.54905" lon="-1.48876">
        <ele>58</ele>
        <time>2023-10-29T23:53:04Z</time>
      </trkpt>
      <trkpt lat="47.5501" lon="-1.4886">
        <ele>60</ele>
        <time>2023-10-29T23:55:25Z</time>
      </trkpt>
      <trkpt lat="47.55053" lon="-1.48847">
        <ele>61</ele>
        <time>2023-10-29T23:56:23Z</time>
      </trkpt>
      <trkpt lat="47.55204" lon="-1.48789">
        <ele>64</ele>
        <time>2023-10-29T23:59:51Z</time>
      </trkpt>
      <trkpt lat="47.55296" lon="-1.48762">
        <ele>68</ele>
        <time>2023-10-30T00:01:56Z</time>
      </trkpt>
      <trkpt lat="47.55318" lon="-1.48769">
        <ele>69</ele>
        <time>2023-10-30T00:02:26Z</time>
      </trkpt>
      <trkpt lat="47.5537" lon="-1.488">
        <ele>71</ele>
        <time>2023-10-30T00:03:41Z</time>
      </trkpt>
      <trkpt lat="47.55435" lon="-1.48833">
        <ele>74</ele>
        <time>2023-10-30T00:05:13Z</time>
      </trkpt>
      <trkpt lat="47.55527" lon="-1.48871">
        <ele>78</ele>
        <time>2023-10-30T00:07:20Z</time>
      </trkpt>
      <trkpt lat="47.55558" lon="-1.48878">
        <ele>77</ele>
        <time>2023-10-30T00:08:02Z</time>
      </trkpt>
      <trkpt lat="47.55559" lon="-1.48913">
        <ele>75</ele>
        <time>2023-10-30T00:08:34Z</time>
      </trkpt>
      <trkpt lat="47.55585" lon="-1.48935">
        <ele>75</ele>
        <time>2023-10-30T00:09:14Z</time>
      </trkpt>
      <trkpt lat="47.55608" lon="-1.48946">
        <ele>74</ele>
        <time>2023-10-30T00:09:46Z</time>
      </trkpt>
      <trkpt lat="47.55628" lon="-1.48955">
        <ele>73</ele>
        <time>2023-10-30T00:10:14Z</time>
      </trkpt>
      <trkpt lat="47.55667" lon="-1.48963">
        <ele>71</ele>
        <time>2023-10-30T00:11:06Z</time>
      </trkpt>
      <trkpt lat="47.55719" lon="-1.49002">
        <ele>66</ele>
        <time>2023-10-30T00:12:24Z</time>
      </trkpt>
      <trkpt lat="47.55799" lon="-1.49047">
        <ele>59</ele>
        <time>2023-10-30T00:14:18Z</time>
      </trkpt>
      <trkpt lat="47.55804" lon="-1.49056">
        <ele>59</ele>
        <time>2023-10-30T00:14:29Z</time>
      </trkpt>
      <trkpt lat="47.56018" lon="-1.49154">
        <ele>51</ele>
        <time>2023-10-30T00:19:28Z</time>
      </trkpt>
      <trkpt lat="47.56028" lon="-1.49154">
        <ele>51</ele>
        <time>2023-10-30T00:19:41Z</time>
      </trkpt>
      <trkpt lat="47.56043" lon="-1.49144">
        <ele>50</ele>
        <time>2023-10-30T00:20:03Z</time>
      </trkpt>
      <trkpt lat="47.5605" lon="-1.49149">
        <ele>50</ele>
        <time>2023-10-30T00:20:13Z</time>
      </trkpt>
      <trkpt lat="47.56044" lon="-1.49161">
        <ele>50</ele>
        <time>2023-10-30T00:20:27Z</time>
      </trkpt>
      <trkpt lat="47.56079" lon="-1.49166">
        <ele>50</ele>
        <time>2023-10-30T00:21:14Z</time>
      </trkpt>
      <trkpt lat="47.56161" lon="-1.49167">
        <ele>47</ele>
        <time>2023-10-30T00:23:03Z</time>
      </trkpt>
      <trkpt lat="47.56812" lon="-1.49166">
        <ele>36</ele>
        <time>2023-10-30T00:37:32Z</time>
      </trkpt>
      <trkpt lat="47.56786" lon="-1.49462">
        <ele>39</ele>
        <time>2023-10-30T00:42:01Z</time>
      </trkpt>
      <trkpt lat="47.56774" lon="-1.49606">
        <ele>40</ele>
        <time>2023-10-30T00:44:11Z</time>
      </trkpt>
      <trkpt lat="47.56661" lon="-1.49605">
        <ele>40</ele>
        <time>2023-10-30T00:46:42Z</time>
      </trkpt>
      <trkpt lat="47.56319" lon="-1.49615">
        <ele>42</ele>
        <time>2023-10-30T00:54:19Z</time>
      </trkpt>
      <trkpt lat="47.56287" lon="-1.49616">
        <ele>43</ele>
        <time>2023-10-30T00:55:01Z</time>
      </trkpt>
      <trkpt lat="47.56274" lon="-1.49622">
        <ele>44</ele>
        <time>2023-10-30T00:55:20Z</time>
      </trkpt>
      <trkpt lat="47.56262" lon="-1.49642">
        <ele>44</ele>
        <time>2023-10-30T00:55:44Z</time>
      </trkpt>
      <trkpt lat="47.56253" lon="-1.49687">
        <ele>44</ele>
        <time>2023-10-30T00:56:26Z</time>
      </trkpt>
      <trkpt lat="47.56186" lon="-1.50123">
        <ele>48</ele>
        <time>2023-10-30T01:03:09Z</time>
      </trkpt>
      <trkpt lat="47.56046" lon="-1.50168">
        <ele>51</ele>
        <time>2023-10-30T01:06:20Z</time>
      </trkpt>
      <trkpt lat="47.55909" lon="-1.50217">
        <ele>55</ele>
        <time>2023-10-30T01:09:28Z</time>
      </trkpt>
      <trkpt lat="47.55894" lon="-1.50226">
        <ele>56</ele>
        <time>2023-10-30T01:09:49Z</time>
      </trkpt>
      <trkpt lat="47.55882" lon="-1.50351">
        <ele>57</ele>
        <time>2023-10-30T01:11:43Z</time>
      </trkpt>
      <trkpt lat="47.5587" lon="-1.50442">
        <ele>57</ele>
        <time>2023-10-30T01:13:07Z</time>
      </trkpt>
      <trkpt lat="47.5592" lon="-1.50516">
        <ele>56</ele>
        <time>2023-10-30T01:14:41Z</time>
      </trkpt>
      <trkpt lat="47.55933" lon="-1.50544">
        <ele>56</ele>
        <time>2023-10-30T01:15:12Z</time>
      </trkpt>
      <trkpt lat="47.55965" lon="-1.5063">
        <ele>55</ele>
        <time>2023-10-30T01:16:40Z</time>
      </trkpt>
      <trkpt lat="47.55986" lon="-1.50671">
        <ele>55</ele>
        <time>2023-10-30T01:17:26Z</time>
      </trkpt>
      <trkpt lat="47.56016" lon="-1.50717">
        <ele>55</ele>
        <time>2023-10-30T01:18:24Z</time>
      </trkpt>
      <trkpt lat="47.56022" lon="-1.50737">
        <ele>54</ele>
        <time>2023-10-30T01:18:44Z</time>
      </trkpt>
      <trkpt lat="47.55919" lon="-1.5087">
        <ele>57</ele>
        <time>2023-10-30T01:21:46Z</time>
      </trkpt>
      <trkpt lat="47.55913" lon="-1.50911">
        <ele>57</ele>
        <time>2023-10-30T01:22:24Z</time>
      </trkpt>
      <trkpt lat="47.55916" lon="-1.50977">
        <ele>56</ele>
        <time>2023-10-30T01:23:23Z</time>
      </trkpt>
      <trkpt lat="47.55926" lon="-1.51014">
        <ele>56</ele>
        <time>2023-10-30T01:23:59Z</time>
      </trkpt>
      <trkpt lat="47.55942" lon="-1.51036">
        <ele>55</ele>
        <time>2023-10-30T01:24:28Z</time>
      </trkpt>
      <trkpt lat="47.55964" lon="-1.51052">
        <ele>55</ele>
        <time>2023-10-30T01:25:01Z</time>
      </trkpt>
      <trkpt lat="47.55992" lon="-1.51084">
        <ele>55</ele>
        <time>2023-10-30T01:25:48Z</time>
      </trkpt>
      <trkpt lat="47.56003" lon="-1.5109">
        <ele>55</ele>
        <time>2023-10-30T01:26:04Z</time>
      </trkpt>
      <trkpt lat="47.56019" lon="-1.5109">
        <ele>55</ele>
        <time>2023-10-30T01:26:25Z</time>
      </trkpt>
      <trkpt lat="47.56059" lon="-1.5107">
        <ele>54</ele>
        <time>2023-10-30T01:27:22Z</time>
      </trkpt>
      <trkpt lat="47.56141" lon="-1.51079">
        <ele>53</ele>
        <time>2023-10-30T01:29:11Z</time>
      </trkpt>
      <trkpt lat="47.56147" lon="-1.50958">
        <ele>52</ele>
        <time>2023-10-30T01:31:01Z</time>
      </trkpt>
      <trkpt lat="47.56145" lon="-1.50778">
        <ele>50</ele>
        <time>2023-10-30T01:33:43Z</time>
      </trkpt>
      <trkpt lat="47.56281" lon="-1.50754">
        <ele>48</ele>
        <time>2023-10-30T01:36:45Z</time>
      </trkpt>
      <trkpt lat="47.56304" lon="-1.50754">
        <ele>47</ele>
        <time>2023-10-30T01:37:16Z</time>
      </trkpt>
      <trkpt lat="47.56388" lon="-1.50785">
        <ele>48</ele>
        <time>2023-10-30T01:39:12Z</time>
      </trkpt>
      <trkpt lat="47.56475" lon="-1.50786">
        <ele>47</ele>
        <time>2023-10-30T01:41:08Z</time>
      </trkpt>
      <trkpt lat="47.56489" lon="-1.50794">
        <ele>47</ele>
        <time>2023-10-30T01:41:28Z</time>
      </trkpt>
      <trkpt lat="47.56532" lon="-1.50835">
        <ele>48</ele>
        <time>2023-10-30T01:42:36Z</time>
      </trkpt>
      <trkpt lat="47.56536" lon="-1.50839">
        <ele>48</ele>
        <time>2023-10-30T01:42:42Z</time>
      </trkpt>
      <trkpt lat="47.56583" lon="-1.50874">
        <ele>47</ele>
        <time>2023-10-30T01:43:53Z</time>
      </trkpt>
      <trkpt lat="47.56651" lon="-1.50905">
        <ele>45</ele>
        <time>2023-10-30T01:45:28Z</time>
      </trkpt>
      <trkpt lat="47.56643" lon="-1.5096">
        <ele>46</ele>
        <time>2023-10-30T01:46:18Z</time>
      </trkpt>
      <trkpt lat="47.56641" lon="-1.50971">
        <ele>46</ele>
        <time>2023-10-30T01:46:28Z</time>
      </trkpt>
      <trkpt lat="47.56581" lon="-1.51372">
        <ele>47</ele>
        <time>2023-10-30T01:52:38Z</time>
      </trkpt>
      <trkpt lat="47.56579" lon="-1.51419">
        <ele>46</ele>
        <time>2023-10-30T01:53:21Z</time>
      </trkpt>
      <trkpt lat="47.56587" lon="-1.51702">
        <ele>46</ele>
        <time>2023-10-30T01:57:36Z</time>
      </trkpt>
      <trkpt lat="47.56579" lon="-1.51943">
        <ele>47</ele>
        <time>2023-10-30T02:01:13Z</time>
      </trkpt>
      <trkpt lat="47.56581" lon="-1.51962">
        <ele>47</ele>
        <time>2023-10-30T02:01:30Z</time>
      </trkpt>
      <trkpt lat="47.56542" lon="-1.51999">
        <ele>47</ele>
        <time>2023-10-30T02:02:32Z</time>
      </trkpt>
      <trkpt lat="47.56526" lon="-1.51994">
        <ele>48</ele>
        <time>2023-10-30T02:02:54Z</time>
      </trkpt>
      <trkpt lat="47.56462" lon="-1.52005">
        <ele>48</ele>
        <time>2023-10-30T02:04:20Z</time>
      </trkpt>
      <trkpt lat="47.5644" lon="-1.52001">
        <ele>48</ele>
        <time>2023-10-30T02:04:49Z</time>
      </trkpt>
      <trkpt lat="47.56418" lon="-1.51983">
        <ele>48</ele>
        <time>2023-10-30T02:05:23Z</time>
      </trkpt>
      <trkpt lat="47.56354" lon="-1.51897">
        <ele>50</ele>
        <time>2023-10-30T02:07:18Z</time>
      </trkpt>
      <trkpt lat="47.56273" lon="-1.5183">
        <ele>49</ele>
        <time>2023-10-30T02:09:22Z</time>
      </trkpt>
      <trkpt lat="47.56252" lon="-1.51933">
        <ele>49</ele>
        <time>2023-10-30T02:10:59Z</time>
      </trkpt>
      <trkpt lat="47.56253" lon="-1.51964">
        <ele>49</ele>
        <time>2023-10-30T02:11:27Z</time>
      </trkpt>
      <trkpt lat="47.56259" lon="-1.52011">
        <ele>49</ele>
        <time>2023-10-30T02:12:10Z</time>
      </trkpt>
      <trkpt lat="47.56202" lon="-1.51988">
        <ele>50</ele>
        <time>2023-10-30T02:13:29Z</time>
      </trkpt>
      <trkpt lat="47.5604" lon="-1.5192">
        <ele>52</ele>
        <time>2023-10-30T02:17:14Z</time>
      </trkpt>
      <trkpt lat="47.56012" lon="-1.51918">
        <ele>52</ele>
        <time>2023-10-30T02:17:51Z</time>
      </trkpt>
      <trkpt lat="47.55945" lon="-1.51923">
        <ele>53</ele>
        <time>2023-10-30T02:19:20Z</time>
      </trkpt>
      <trkpt lat="47.55926" lon="-1.51916">
        <ele>53</ele>
        <time>2023-10-30T02:19:47Z</time>
      </trkpt>
      <trkpt lat="47.55899" lon="-1.51965">
        <ele>53</ele>
        <time>2023-10-30T02:20:44Z</time>
      </trkpt>
      <trkpt lat="47.55876" lon="-1.52034">
        <ele>54</ele>
        <time>2023-10-30T02:21:53Z</time>
      </trkpt>
      <trkpt lat="47.55859" lon="-1.52112">
        <ele>56</ele>
        <time>2023-10-30T02:23:07Z</time>
      </trkpt>
      <trkpt lat="47.55827" lon="-1.52325">
        <ele>63</ele>
        <time>2023-10-30T02:26:23Z</time>
      </trkpt>
      <trkpt lat="47.55725" lon="-1.52352">
        <ele>63</ele>
        <time>2023-10-30T02:28:41Z</time>
      </trkpt>
      <trkpt lat="47.55402" lon="-1.52411">
        <ele>63</ele>
        <time>2023-10-30T02:35:56Z</time>
      </trkpt>
      <trkpt lat="47.55306" lon="-1.52422">
        <ele>66</ele>
        <time>2023-10-30T02:38:04Z</time>
      </trkpt>
      <trkpt lat="47.553" lon="-1.52559">
        <ele>66</ele>
        <time>2023-10-30T02:40:08Z</time>
      </trkpt>
      <trkpt lat="47.55449" lon="-1.52521">
        <ele>62</ele>
        <time>2023-10-30T02:43:30Z</time>
      </trkpt>
      <trkpt lat="47.55458" lon="-1.5252">
        <ele>62</ele>
        <time>2023-10-30T02:43:42Z</time>
      </trkpt>
      <trkpt lat="47.55466" lon="-1.52524">
        <ele>62</ele>
        <time>2023-10-30T02:43:53Z</time>
      </trkpt>
    </trkseg>
  </trk>
</gpx>